Weather in Pintaq

Uzbekistan     41°13′09″N   61°18′59″E
temp.,
°C
wind,
m/s
gust,
m/s
humid.,
%
clouds,
%
prec.,
mm/h
press.,
hPa
HPBL,
m
24 september, fri
fri2423:00+21ene714180 0.0 1013254
02:00+19ene612200 0.0 1013221
05:00+18ene612225 0.0 1013215
08:00+18ene712232 0.0 1014271
11:00+26e89155 0.0 1014665
14:00+31e78105 0.0 10121191
17:00+32e7895 0.0 10101416
20:00+26e612130 0.0 1011175
25 september, sat
sat2523:00+24e511160 0.0 1011146
02:00+22ese59170 0.0 1011128
05:00+21ese611190 0.0 1010152
08:00+22ese613170 0.0 1010254
11:00+31se810100 0.0 1010591
14:00+36sse8970 0.0 10071148
17:00+38s6860 0.0 10061758
20:00+31sw44100 0.0 100623
26 september, sun
sun2623:00+26wnw44160 0.0 100726
02:00+24nw44333 0.0 100742
05:00+22nw47372 0.0 1008100
08:00+21nw58385 0.0 1009250
11:00+27nw66293 0.0 1010865
14:00+29wnw78254 0.0 10091535
17:00+28wnw99250 0.0 10101741
20:00+24wnw611330 0.0 1012368
27 september, mon
mon2723:00+21nw812300 0.0 1014507
02:00+18nw47370 0.0 1015162
05:00+16nw46440 0.0 1016100
08:00+16nw23460 0.0 1018133
11:00+21wsw34330 0.0 10181266
14:00+24w55250 0.0 10161626
17:00+25w45270 0.0 10151565
20:00+21wnw33340 0.0 101520
28 september, tue
tue2823:00+19nnw23390 0.0 101516
02:00+17nnw22430 0.0 101411
05:00+16nw11475 0.0 101411
08:00+18w23400 0.0 101578
11:00+24wnw45300 0.0 10161209
14:00+27wnw67255 0.0 10142155
17:00+26nw662830 0.0 10142179
20:00+21n59325 0.0 1016220